NOAA 16 DEB, 41059

Orbit data source: Space-Track

NOAA 16 DEB, 41059 is space debris in SSO originally from a launch on Thu, 21 Sep 2000 UTC launched from the Air Force Western Test Range (AFWTR). Debris objects in space refer to the collection of defunct objects orbiting the Earth. Examples of debris include non-operational satellites, rocket bodies, and fragments generated from explosions, collisions, or faulty payload assembly.

Loading next visibility...
Identifier
41059, 2000-055S
Orbit
SSO
Country
Flag of USUS
Related business
Manufacturer
Unknown
Mission
Spacecraft
Bus & Motor
Unknown
Mass
Unknown
Launch date (UTC)
2000-09-21 (26 years ago)
Launch vehicle
Unknown
Launch site
Air Force Western Test Range (AFWTR)
Object type
Payload
Rocket body
Debris
Shape & HBR
Unknown shape, 0.2 m
Radar Cross Section
Medium (>0.1 m² and <1 m²)

Expand to show TLE details & history
Last TLE update: 11 hours ago

TLE from 11 hours ago
0 NOAA 16 DEB
1 41059U 00055S   26236.14720332  .00000482  00000-0  24589-3 0  9995
2 41059  98.6182 305.1583 0022280  88.0375 272.3353 14.20050672555631
Epoch: 2026-08-24T03:31Z
TLE epoch observation values (Epoch: 2026-08-24T03:31:58.366Z)
Latitude
-0.00006°
Longitude
-80.26796°
Altitude
827.481 km
Speed
7.44 km/s
True Right ascension
20h 20m 37s
True Declination
0° 00' 00"
Sunlit
Object was in full shadow at epoch
Visualization orbit readout
Latitude
Unknown
Longitude
Unknown
Altitude
Unknown
Speed
Unknown
Apparent Right ascension
Unknown
Apparent Declination
Unknown
Sunlit
N/A
Visualization observer readout
Local Sidereal Time
05:22:15
Azimuth
Unknown
Elevation
Unknown
Doppler factor
Unknown
Orbital elements
Apogee altitude
838.378 km
Perigee altitude
806.293 km
Semi-major axis
7,200.473 km
Eccentricity
0.00223
Inclination
98.6182°
RAAN
305.1583°
Arg. of periapsis
88.0375°
True anomaly
272.08017°
Mean anomaly
272.3353°
Eccentric anomaly
272.20774°
Mean motion
3.55223 °/min
Orbital period
101.34 mins
BSTAR
0.00024589
Loading maneuver chart data...
Computing Atmospheric mass density...
Loading historical data...
Loading historical data...
Loading historical data...
Loading historical data...
Loading historical data...
Loading historical data...
Loading historical data...

Documentation

Showing up to 5 results
|